Weather History for La Porte, IN

Change the Weather History Date:

Friday, June 6, 2014

  Actual Average (KVPZ) Record (KVPZ)
Temperature  
Mean Temperature 62 °F 66 °F  
Max Temperature 78 °F 77 °F 92 °F (1999)
Min Temperature 48 °F 56 °F 38 °F (1998)
Degree Days  
Heating Degree Days 2 3  
Month to date heating degree days 18  
Since 1 June heating degree days 18  
Since 1 July heating degree days 6297  
Cooling Degree Days 0 4  
Month to date cooling degree days 21  
Year to date cooling degree days 68  
Since 1 June cooling degree days 21  
Growing Degree Days 12 (Base 50)    
Moisture  
Dew Point 47 °F    
Average Humidity 60    
Maximum Humidity 92    
Minimum Humidity 29    
Precipitation  
Precipitation 0.00 in 0.14 in 0.37 in (2008)
Month to date precipitation 0.81  
Year to date precipitation 13.79  
Sea Level Pressure  
Sea Level Pressure 30.00 in    
Wind  
Wind Speed 1 mph (NNW)    
Max Wind Speed 16 mph    
Max Gust Speed 16 mph    
Visibility 10 miles    
Events      
T = Trace of Precipitation, MM = Missing Value Source: NWS Daily Summary

Daily Weather History Graph

Daily Weather History Graph

Search for Another Location

Airport:

Trip Planner

Search our weather history database for the weather conditions in past years. The results will help you decide how hot, cold, wet, or windy it might be!

Date:

Astronomy

Jun. 06, 2014 Rise Set
Actual Time 5:13 AM CDT 8:18 PM CDT
Civil Twilight 4:39 AM CDT 8:51 PM CDT
Nautical Twilight 3:56 AM CDT 9:34 PM CDT
Astronomical Twilight 3:06 AM CDT 10:25 PM CDT
Moon 1:32 PM CDT (6/6) 1:10 AM CDT (6/6)
Length of Visible Light 16h 12m
Length of Day
15h 04m
First Quarter, 58% of the Moon is Illuminated
Jun 6
First Quarter
Jun 12
Full
Jun 19
Last Quarter
Jun 27
New
Jul 5
First Quarter

Hourly Weather History & Observations

Time (CDT) Temp. Dew Point Humidity Pressure Visibility Wind Dir Wind Speed Gust Speed Precip Events Conditions
12:15 AM 50.2 °F 45.5 °F 84% 29.97 in 10.0 mi Calm Calm - N/A   Scattered Clouds
12:35 AM 49.6 °F 45.9 °F 87% 29.96 in 10.0 mi Calm Calm - N/A   Scattered Clouds
12:55 AM 49.8 °F 45.3 °F 84% 29.96 in 10.0 mi Calm Calm - N/A   Scattered Clouds
1:15 AM 49.1 °F 44.8 °F 85% 29.96 in 10.0 mi Calm Calm - N/A   Clear
1:35 AM 48.2 °F 45.0 °F 89% 29.96 in 10.0 mi Calm Calm - N/A   Scattered Clouds
1:55 AM 48.6 °F 45.0 °F 87% 29.96 in 10.0 mi Calm Calm - N/A   Scattered Clouds
2:15 AM 48.6 °F 45.3 °F 89% 29.96 in 10.0 mi Calm Calm - N/A   Scattered Clouds
2:35 AM 49.1 °F 46.6 °F 91% 29.96 in 10.0 mi Calm Calm - N/A   Clear
2:55 AM 50.9 °F 46.4 °F 85% 29.97 in 10.0 mi Calm Calm - N/A   Clear
3:15 AM 50.7 °F 47.5 °F 89% 29.97 in 10.0 mi Calm Calm - N/A   Clear
3:35 AM 50.5 °F 47.7 °F 90% 29.97 in 10.0 mi Calm Calm - N/A   Clear
3:55 AM 51.1 °F 47.3 °F 87% 29.98 in 10.0 mi Calm Calm - N/A   Clear
4:15 AM 51.4 °F 47.8 °F 87% 29.99 in 10.0 mi Calm Calm - N/A   Clear
4:35 AM 48.9 °F 46.4 °F 91% 30.00 in 10.0 mi Calm Calm - N/A   Clear
4:55 AM 49.3 °F 46.6 °F 90% 30.01 in 10.0 mi Calm Calm - N/A   Clear
5:15 AM 49.1 °F 46.8 °F 92% 30.01 in 10.0 mi Calm Calm - N/A   Clear
5:35 AM 50.4 °F 47.3 °F 89% 30.02 in 10.0 mi Calm Calm - N/A   Clear
5:55 AM 50.9 °F 48.7 °F 92% 30.02 in 10.0 mi Calm Calm - N/A   Clear
6:15 AM 52.2 °F 49.3 °F 90% 30.02 in 10.0 mi Calm Calm - N/A   Clear
6:35 AM 54.1 °F 51.4 °F 91% 30.02 in 10.0 mi Calm Calm - N/A   Clear
6:55 AM 57.0 °F 49.3 °F 75% 30.02 in 10.0 mi Calm Calm - N/A   Clear
7:15 AM 59.0 °F 50.0 °F 72% 30.02 in 10.0 mi Calm Calm - N/A   Clear
7:35 AM 61.0 °F 49.1 °F 65% 30.02 in 10.0 mi Calm Calm - N/A   Clear
7:55 AM 62.4 °F 50.0 °F 64% 30.02 in 10.0 mi Calm Calm - N/A   Clear
8:15 AM 63.1 °F 50.5 °F 63% 30.03 in 10.0 mi Calm Calm - N/A   Clear
8:35 AM 64.6 °F 50.7 °F 61% 30.03 in 10.0 mi Calm Calm - N/A   Clear
8:55 AM 66.2 °F 52.5 °F 61% 30.03 in 10.0 mi Calm Calm - N/A   Clear
9:15 AM 67.1 °F 52.2 °F 59% 30.03 in 10.0 mi Calm Calm - N/A   Clear
9:35 AM 68.7 °F 52.5 °F 56% 30.02 in 10.0 mi West 3.5 mph - N/A   Clear
9:55 AM 70.0 °F 52.2 °F 53% 30.02 in 10.0 mi WSW 4.6 mph - N/A   Clear
10:15 AM 70.3 °F 52.2 °F 52% 30.02 in 10.0 mi Calm Calm - N/A   Clear
10:35 AM 72.0 °F 53.1 °F 51% 30.02 in 10.0 mi WSW 6.9 mph - N/A   Clear
10:55 AM 72.0 °F 50.5 °F 47% 30.02 in 10.0 mi Calm Calm - N/A   Clear
11:15 AM 72.5 °F 50.7 °F 46% 30.02 in 10.0 mi Calm Calm - N/A   Clear
11:35 AM 73.4 °F 50.4 °F 44% 30.01 in 10.0 mi Calm Calm - N/A   Clear
11:55 AM 73.6 °F 48.6 °F 41% 30.01 in 10.0 mi Calm Calm - N/A   Clear
12:15 PM 74.7 °F 48.7 °F 40% 30.01 in 10.0 mi North 5.8 mph - N/A   Clear
12:35 PM 75.0 °F 48.2 °F 39% 30.01 in 10.0 mi West 4.6 mph - N/A   Clear
12:55 PM 75.4 °F 46.6 °F 36% 30.01 in 10.0 mi West 3.5 mph - N/A   Clear
1:15 PM 75.7 °F 46.2 °F 35% 30.01 in 10.0 mi WNW 3.5 mph - N/A   Clear
1:35 PM 76.3 °F 46.0 °F 34% 30.00 in 10.0 mi Calm Calm - N/A   Clear
2:00 PM 76.8 °F 46.8 °F 34% 30.00 in 10.0 mi NE 3.5 mph - N/A   Clear
2:15 PM 76.1 °F 48.6 °F 38% 29.99 in 10.0 mi SSW 3.5 mph - N/A   Clear
2:35 PM 76.3 °F 48.9 °F 38% 29.99 in 10.0 mi NW 4.6 mph - N/A   Clear
2:55 PM 77.2 °F 48.4 °F 36% 29.99 in 10.0 mi West 3.5 mph - N/A   Clear
3:15 PM 77.4 °F 50.2 °F 38% 29.99 in 10.0 mi NNE 4.6 mph - N/A   Clear
3:35 PM 77.4 °F 46.4 °F 33% 29.99 in 10.0 mi Calm Calm - N/A   Clear
3:55 PM 77.5 °F 46.9 °F 34% 29.99 in 10.0 mi West 3.5 mph - N/A   Clear
4:15 PM 76.1 °F 49.8 °F 40% 29.99 in 10.0 mi North 8.1 mph - N/A   Clear
4:35 PM 76.1 °F 49.3 °F 39% 29.99 in 10.0 mi North 11.5 mph - N/A   Clear
4:55 PM 75.6 °F 47.1 °F 36% 29.99 in 10.0 mi NNW 11.5 mph 16.1 mph N/A   Clear
5:15 PM 75.2 °F 47.1 °F 37% 29.99 in 10.0 mi North 8.1 mph - N/A   Clear
5:35 PM 74.8 °F 45.1 °F 35% 29.99 in 10.0 mi North 8.1 mph 16.1 mph N/A   Clear
5:55 PM 74.5 °F 45.0 °F 35% 29.99 in 10.0 mi North 4.6 mph - N/A   Clear
6:15 PM 73.9 °F 44.1 °F 34% 29.99 in 10.0 mi NNW 8.1 mph - N/A   Clear
6:35 PM 73.4 °F 41.7 °F 32% 30.00 in 10.0 mi NNW 16.1 mph - N/A   Clear
6:55 PM 72.0 °F 39.2 °F 30% 30.00 in 10.0 mi NNE 3.5 mph - N/A   Clear
7:15 PM 70.9 °F 36.9 °F 29% 30.00 in 10.0 mi North 5.8 mph - N/A   Clear
7:35 PM 68.9 °F 37.4 °F 32% 30.00 in 10.0 mi NNE 5.8 mph - N/A   Clear
7:55 PM 67.5 °F 38.5 °F 35% 30.00 in 10.0 mi Calm Calm - N/A   Clear
8:15 PM 65.5 °F 41.5 °F 42% 30.00 in 10.0 mi Calm Calm - N/A   Clear
8:35 PM 64.2 °F 39.0 °F 39% 30.00 in 10.0 mi Calm Calm - N/A   Clear
8:55 PM 64.0 °F 41.2 °F 43% 30.00 in 10.0 mi Calm Calm - N/A   Clear
9:15 PM 58.1 °F 50.4 °F 75% 30.01 in 10.0 mi Calm Calm - N/A   Clear
9:35 PM 59.0 °F 48.0 °F 67% 30.01 in 10.0 mi Calm Calm - N/A   Clear
9:55 PM 56.8 °F 48.6 °F 74% 30.01 in 10.0 mi Calm Calm - N/A   Clear
10:15 PM 56.3 °F 49.6 °F 78% 30.01 in 10.0 mi Calm Calm - N/A   Scattered Clouds
10:35 PM 54.9 °F 49.6 °F 83% 30.02 in 10.0 mi Calm Calm - N/A   Scattered Clouds
10:55 PM 54.7 °F 47.7 °F 77% 30.03 in 10.0 mi Calm Calm - N/A   Clear
11:15 PM 54.7 °F 47.8 °F 78% 30.03 in 10.0 mi Calm Calm - N/A   Clear
11:35 PM 54.3 °F 48.4 °F 80% 30.03 in 10.0 mi Calm Calm - N/A   Clear
11:55 PM 54.3 °F 49.1 °F 83% 30.03 in 10.0 mi Calm Calm - N/A   Scattered Clouds